Flag for Germany Weather past 2 weeks in Neustrelitz, Mecklenburg-Western Pomerania, Germany

Now
46 °F

Overcast.


Feels Like: 46 °F
Forecast: 38 / 67 °F
Wind: 2 mph from Northwest

Location: Neuruppin


UV Index: 3 (Moderate)

Visibility: 6 mi


Pressure: 29.78 "Hg

Humidity: 82%

Dew point: 40 °F

Location of NeustrelitzLocation

Historic Weather in Neustrelitz

°F

Neustrelitz temperature yesterday

Maximum temperature yesterday: 56 °F (at 2:00 PM)
Minimum temperature yesterday: 34 °F (at 7:00 AM)
Average temperature yesterday: 46 °F

Past Weeks' High & Low Weather Summary

 TemperatureHumidityPressure
High67 °F (Apr 3, 4:00 PM)98% (Apr 12, 6:00 AM)30.47 "Hg (Apr 12, 6:00 AM)
Low33 °F (Apr 16, 7:00 AM)31% (Apr 16, 1:00 PM)29.67 "Hg (Apr 3, 4:00 PM)
Average49 °F75%30.01 "Hg
* Reported Apr 3 11:00 AM — Apr 18 11:00 AM, Neustrelitz, Weather by CustomWeather, © 2014

Note: Actual official high and low records may vary slightly from our data, if they occured in-between our weather recording intervals... More about our weather records

Advertising

Historic Weather Conditions — Data for Previous 24 hours

 ConditionsComfort  
Time TempWeatherWind HumidityBarometerVisibility
11:00 AM
Apr 18
46 °FOvercast.2 mph82%29.78 "Hg6 mi
10:00 AM44 °FOvercast.3 mph87%29.77 "Hg6 mi
9:00 AM44 °FOvercast.3 mph88%29.77 "Hg6 mi
8:00 AM43 °FOvercast.3 mph90%29.76 "Hg6 mi
7:00 AM42 °FOvercast.1 mph91%29.75 "Hg6 mi
6:00 AM42 °FOvercast.2 mph92%29.75 "Hg6 mi
5:00 AM43 °FLight fog.3 mph87%29.76 "Hg6 mi
4:00 AM45 °FOvercast.3 mph91%29.76 "Hg6 mi
3:00 AM45 °FLight fog.2 mph88%29.77 "Hg6 mi
2:00 AM47 °FLight fog.3 mph69%29.80 "Hg6 mi
6:00 PM
Apr 17
54 °FSunny.6 mph45%30.01 "Hg6 mi
5:00 PM55 °FSunny.6 mph43%30.05 "Hg6 mi
4:00 PM55 °FSunny.6 mph41%30.08 "Hg6 mi
3:00 PM56 °FSunny.6 mph37%30.12 "Hg6 mi
2:00 PM56 °FSunny.5 mph40%30.18 "Hg6 mi
1:00 PM55 °FSunny.6 mph39%30.22 "Hg6 mi
12:00 PM55 °FSunny.6 mph40%30.26 "Hg6 mi
Weather by CustomWeather, © 2014

See weather overview